STARLINK-35051, 65380

Orbit data source: Space-Track

STARLINK-35051, 65380 is a payload satellite owned by SpaceX/Seattle (US) in SSO that was launched on Sat, 30 Aug 2025 UTC via an FALCON 9 launch vehicle from the Air Force Western Test Range (AFWTR). Payload-class satellites include a variety of spacecraft equipped with specific instruments for various scientific and technological missions. These include communications satellites like Starlink; space stations such as the ISS; scientific satellites like the Hubble; Earth observation satellites from companies like Planet Labs, Umbra, and HawkEye 360; GPS; miniature CubeSats for education and research; and military/defense satellites.

Loading next visibility...
Identifier
65380, 2025-191B
Orbit
SSO
Country
Flag of USUS
Related business
Manufacturer
SpaceX/Seattle
Mission
Operational Commercial Communications
Bus & Motor
STARLINK V2MO, Unknown motor
Mass
575 kg wet, ~530 kg dry
Launch date (UTC)
2025-08-30 (7 months ago)
Launch vehicle
FALCON 9
Launch site
Air Force Western Test Range (AFWTR)
Object type
Payload
Rocket body
Debris
Shape & HBR
Box + 2 Pan, 17.7 m
Radar Cross Section
36.964 m², Large (>1 m²)

Expand to show TLE details & history
Last TLE update: 13 hours ago

TLE from 13 hours ago
0 STARLINK-35051
1 65380U 25191B   26093.69184284  .00006657  00000-0  46495-3 0  9997
2 65380  97.6028 326.2015 0002585  79.2635 280.8883 15.05664232 34049
Epoch: 2026-04-03T16:36Z
TLE epoch observation values (Epoch: 2026-04-03T16:36:15.221Z)
Latitude
0.00001°
Longitude
-114.88425°
Altitude
552.195 km
Speed
7.586 km/s
True Right ascension
21h 44m 48s
True Declination
0° 00' 00"
Sunlit
Object was in daylight at epoch
Visualization orbit readout
Latitude
Unknown
Longitude
Unknown
Altitude
Unknown
Speed
Unknown
Apparent Right ascension
Unknown
Apparent Declination
Unknown
Sunlit
N/A
Visualization observer readout
Local Sidereal Time
11:25:00
Azimuth
Unknown
Elevation
Unknown
Doppler factor
Unknown
Orbital elements
Apogee altitude
548.251 km
Perigee altitude
544.671 km
Semi-major axis
6,924.598 km
Eccentricity
0.00026
Inclination
97.6028°
RAAN
326.2015°
Arg. of periapsis
79.2635°
True anomaly
280.85921°
Mean anomaly
280.8883°
Eccentric anomaly
280.87375°
Mean motion
3.76662 °/min
Orbital period
95.58 mins
BSTAR
0.00046495
Loading maneuver chart data...
Computing Atmospheric mass density...
Loading historical data...
Loading historical data...
Loading historical data...
Loading historical data...
Loading historical data...
Loading historical data...
Loading historical data...

Documentation

Showing up to 5 results
|